Location: Aufkirchen
(47.9603°N, 11.3653°E)
Time: 07:45:18
(UTC+01:00)

Transit 2A - Pass Details

Date: 26 November 2020
Orbit: 599 x 960 km, 66.7° (Epoch: 25 January)

Event Time Altitude Azimuth Distance (km) Brightness Sun altitude
Rises 16:25:16 0° 153° (SSE) 3,627 9.6 -0.7°
Reaches altitude 10° 16:29:25 10° 127° (SE) 2,671 8.6 -1.2°
Maximum altitude 16:32:03 13° 102° (ESE) 2,443 8.2 -1.6°
Drops below altitude 10° 16:34:39 10° 77° (ENE) 2,628 8.2 -2.0°
Enters shadow 16:37:39 - 56° (NE) 3,250 8.5 -2.4°
Sets 16:38:38 0° 51° (NE) 3,516 - -2.6°
